Date Time,Air Temp,Sky Temp,Clarity,Light Level,Rain Sensor,Readings
2018-05-21 00:00:04,23.6,-9.4,32.9,0.0,2.3,112
2018-05-21 00:05:04,23.5,-9.6,33.1,0.0,2.3,111
2018-05-21 00:10:04,23.4,-9.9,33.4,0.0,2.5,112
2018-05-21 00:15:04,23.4,-10.3,33.7,0.0,2.5,112
2018-05-21 00:20:04,23.3,-10.4,33.8,0.0,2.5,112
2018-05-21 00:25:04,23.2,-10.6,33.8,0.0,2.4,111
2018-05-21 00:30:04,23.1,-10.8,33.9,0.0,2.3,112
2018-05-21 00:35:04,23.0,-11.0,34.0,0.0,2.3,112
2018-05-21 00:40:04,22.9,-11.1,34.0,0.0,2.3,112
2018-05-21 00:45:04,22.8,-11.3,34.2,0.0,2.3,111
2018-05-21 00:50:04,22.7,-11.6,34.3,0.0,2.3,111
2018-05-21 00:55:04,22.6,-11.8,34.4,0.0,2.3,111
2018-05-21 01:00:04,22.6,-11.8,34.4,0.0,2.3,111
2018-05-21 01:05:04,22.5,-11.9,34.4,0.0,2.3,111
2018-05-21 01:10:04,22.4,-11.9,34.3,0.0,2.3,111
2018-05-21 01:15:04,22.5,-12.0,34.5,0.0,2.3,111
2018-05-21 01:20:04,22.5,-11.9,34.4,0.0,2.3,111
2018-05-21 01:25:04,22.5,-11.5,34.1,0.0,2.3,111
2018-05-21 01:30:04,22.6,-11.4,33.9,0.0,2.3,111
2018-05-21 01:35:04,22.5,-11.2,33.7,0.0,2.3,112
2018-05-21 01:40:04,22.5,-11.4,33.8,0.0,2.3,111
2018-05-21 01:45:04,22.3,-11.6,33.9,0.0,2.3,112
2018-05-21 01:50:04,22.2,-11.4,33.6,0.0,2.3,111
2018-05-21 01:55:04,22.2,-11.6,33.8,0.0,2.3,111
2018-05-21 02:00:04,22.1,-11.5,33.7,0.0,2.3,111
2018-05-21 02:05:04,22.1,-11.4,33.5,0.0,2.3,111
2018-05-21 02:10:04,22.1,-11.3,33.5,0.0,2.3,112
2018-05-21 02:15:04,22.1,-11.3,33.5,0.0,2.3,111
2018-05-21 02:20:04,22.0,-11.5,33.5,0.0,2.3,112
2018-05-21 02:25:04,22.0,-11.3,33.3,0.0,2.3,111
2018-05-21 02:30:04,22.0,-11.2,33.2,0.0,2.3,112
2018-05-21 02:35:04,21.9,-11.2,33.1,0.0,2.3,111
2018-05-21 02:40:04,21.9,-10.9,32.9,0.0,2.3,111
2018-05-21 02:45:04,22.0,-10.6,32.5,0.0,2.3,112
2018-05-21 02:50:04,22.0,-10.4,32.4,0.0,2.4,112
2018-05-21 02:55:04,22.0,-10.1,32.1,0.0,2.5,113
2018-05-21 03:00:04,22.0,-9.6,31.6,0.0,2.5,111
2018-05-21 03:05:04,22.0,-9.6,31.6,0.0,2.6,112
2018-05-21 03:10:04,22.0,-9.9,31.9,0.0,2.6,112
2018-05-21 03:15:04,22.0,-9.8,31.8,0.0,2.6,112
2018-05-21 03:20:04,22.0,-9.3,31.3,0.0,2.7,111
2018-05-21 03:25:04,21.9,-9.1,31.0,0.0,2.7,112
2018-05-21 03:30:04,21.9,-8.7,30.6,0.0,2.7,112
2018-05-21 03:35:04,22.0,-8.2,30.2,0.0,2.7,112
2018-05-21 03:40:04,22.0,-8.2,30.2,0.0,2.7,111
2018-05-21 03:45:04,22.1,-8.1,30.1,0.0,2.6,112
2018-05-21 03:50:04,22.1,-8.1,30.2,0.0,2.6,111
2018-05-21 03:55:04,22.2,-8.1,30.3,0.1,2.6,111
2018-05-21 04:00:04,22.1,-8.1,30.2,0.1,2.6,112
2018-05-21 04:05:04,22.1,-7.9,30.0,0.3,2.6,111
2018-05-21 04:10:05,22.0,-7.8,29.9,0.5,2.6,111
2018-05-21 04:15:05,22.1,-7.6,29.7,0.9,2.6,112
2018-05-21 04:20:05,21.7,-7.3,29.0,1.6,2.6,111
2018-05-21 04:25:05,22.2,-7.1,29.3,2.8,2.5,112
2018-05-21 04:30:05,22.3,-7.2,29.5,4.8,2.4,111
2018-05-21 04:35:05,22.0,-7.2,29.2,7.9,2.3,112
2018-05-21 04:40:05,22.3,-7.2,29.5,12.2,2.3,111
2018-05-21 04:45:05,22.3,-7.0,29.3,17.1,2.4,111
2018-05-21 04:50:05,22.3,-7.0,29.3,21.5,2.3,112
2018-05-21 04:55:05,22.3,-6.8,29.2,24.9,2.3,112
2018-05-21 05:00:05,22.4,-6.8,29.1,27.2,2.3,112
2018-05-21 05:05:05,22.4,-6.6,29.1,28.8,2.3,112
2018-05-21 05:10:05,22.4,-6.8,29.3,29.8,2.3,112
2018-05-21 05:15:05,22.4,-7.2,29.6,30.4,2.3,112
2018-05-21 05:20:05,22.3,-7.3,29.6,30.9,2.3,111
2018-05-21 05:25:05,22.2,-7.6,29.7,31.2,2.3,111
2018-05-21 05:30:05,22.1,-7.9,30.0,31.4,2.5,111
2018-05-21 05:35:05,21.9,-8.0,29.9,31.6,2.6,111
2018-05-21 05:40:05,21.9,-7.6,29.5,31.8,2.6,112
2018-05-21 05:45:05,21.9,-7.2,29.2,31.9,2.7,112
2018-05-21 05:50:05,22.2,-6.6,28.8,31.9,2.5,111
2018-05-21 05:55:05,22.4,-6.5,28.9,32.0,2.3,112
2018-05-21 06:00:05,22.7,-6.2,28.8,32.0,2.3,112
2018-05-21 06:05:02,22.9,-5.9,28.8,32.1,2.3,70
2018-05-21 06:10:04,23.1,-5.5,28.6,32.1,2.3,112
2018-05-21 06:15:04,23.4,-5.5,28.9,32.1,2.3,111
2018-05-21 06:20:04,23.6,-5.4,29.0,32.1,2.3,111
2018-05-21 06:25:04,23.7,-5.5,29.2,32.2,2.3,112
2018-05-21 06:30:04,23.8,-5.6,29.4,32.2,2.3,111
2018-05-21 06:35:04,24.1,-5.4,29.4,32.2,2.4,112
2018-05-21 06:40:04,24.1,-5.5,29.6,32.2,2.4,111
2018-05-21 06:45:04,24.3,-5.3,29.6,32.2,2.3,112
2018-05-21 06:50:04,24.6,-5.3,29.9,32.2,2.3,111
2018-05-21 06:55:04,24.9,-5.0,29.8,32.3,2.3,112
2018-05-21 07:00:04,25.1,-5.0,30.1,32.3,2.3,111
2018-05-21 07:05:04,25.3,-5.1,30.4,32.3,2.3,111
2018-05-21 07:10:04,25.4,-5.1,30.6,32.3,2.3,112
2018-05-21 07:15:04,25.6,-4.5,30.0,32.3,2.3,111
2018-05-21 07:20:04,26.0,-4.3,30.3,32.3,2.3,112
2018-05-21 07:25:04,26.3,-4.4,30.6,32.3,2.3,113
2018-05-21 07:30:04,26.3,-4.3,30.6,32.3,2.3,112
2018-05-21 07:35:04,26.5,-4.5,31.0,32.3,2.3,112
2018-05-21 07:40:04,26.3,-4.1,30.4,32.3,2.3,112
2018-05-21 07:45:04,26.5,-4.5,31.0,32.3,2.3,111
2018-05-21 07:50:04,26.5,-4.4,30.9,32.3,2.3,112
2018-05-21 07:55:04,26.6,-4.0,30.6,32.3,2.3,112
2018-05-21 08:00:04,26.8,-3.6,30.3,32.3,2.3,111
2018-05-21 08:05:04,27.0,-3.8,30.8,32.3,2.2,112
2018-05-21 08:10:04,27.2,-3.2,30.3,32.3,2.2,111
2018-05-21 08:15:04,27.6,-3.6,31.2,32.4,2.3,112
2018-05-21 08:20:04,27.6,-4.0,31.6,32.4,2.3,112
2018-05-21 08:25:04,27.3,-4.0,31.3,32.4,2.3,112
2018-05-21 08:30:04,26.9,-2.5,29.4,32.4,2.2,112
2018-05-21 08:35:04,26.8,-0.8,27.6,32.4,2.2,112
2018-05-21 08:40:04,26.7,-1.4,28.1,32.4,2.3,111
2018-05-21 08:45:04,26.6,-0.2,26.9,32.5,2.3,112
2018-05-21 08:50:04,26.8,2.4,24.4,32.5,2.3,111
2018-05-21 08:55:04,27.3,4.7,22.6,32.5,2.3,111
2018-05-21 09:00:04,27.5,3.4,24.2,32.5,2.3,112
2018-05-21 09:05:04,27.1,1.1,26.0,32.5,2.3,111
2018-05-21 09:10:04,27.3,3.1,24.2,32.5,2.4,111
2018-05-21 09:15:04,28.2,2.1,26.1,32.5,2.4,111
2018-05-21 09:20:04,28.5,0.9,27.6,32.5,2.3,112
2018-05-21 09:25:04,28.8,1.1,27.6,32.5,2.3,111
2018-05-21 09:30:04,29.0,0.6,28.5,32.5,2.3,111
2018-05-21 09:35:04,29.4,0.3,29.2,32.5,2.3,112
2018-05-21 09:40:04,30.0,0.6,29.4,32.5,2.3,111
2018-05-21 09:45:04,30.6,0.8,29.8,32.5,2.3,111
2018-05-21 09:50:04,31.2,0.7,30.5,32.5,2.3,111
2018-05-21 09:55:04,31.8,0.5,31.3,32.5,2.3,111
2018-05-21 10:00:04,32.1,0.9,31.2,32.5,2.3,111
2018-05-21 10:05:04,32.5,0.9,31.5,32.5,2.3,112
2018-05-21 10:10:04,32.6,0.7,31.8,32.5,2.3,111
2018-05-21 10:15:04,32.6,1.6,31.1,32.5,2.3,111
2018-05-21 10:20:04,32.9,1.2,31.8,32.5,2.3,111
2018-05-21 10:25:04,33.0,1.5,31.6,32.5,2.3,111
2018-05-21 10:30:04,33.3,1.9,31.4,32.5,2.3,111
2018-05-21 10:35:04,33.3,1.6,31.7,32.5,2.3,112
2018-05-21 10:40:04,33.5,2.3,31.2,32.6,2.0,111
2018-05-21 10:45:04,32.9,2.6,30.3,32.6,1.8,111
2018-05-21 10:50:04,33.4,2.6,30.7,32.6,2.0,111
2018-05-21 10:55:05,33.7,3.5,30.2,32.6,1.6,111
2018-05-21 11:00:05,34.3,3.7,30.6,32.6,1.4,112
2018-05-21 11:05:05,34.8,4.2,30.6,32.6,1.2,111
2018-05-21 11:10:05,34.6,3.5,31.1,32.6,1.2,112
2018-05-21 11:15:05,34.6,4.0,30.5,32.6,1.3,111
2018-05-21 11:20:05,34.9,3.9,31.0,32.6,1.2,111
2018-05-21 11:25:05,34.6,5.0,29.6,32.6,1.2,112
2018-05-21 11:30:05,34.6,4.8,29.8,32.6,1.2,112
2018-05-21 11:35:05,34.5,5.0,29.5,32.6,1.2,111
2018-05-21 11:40:05,35.2,6.3,28.9,32.6,1.4,111
2018-05-21 11:45:05,36.0,5.5,30.5,32.6,1.7,112
2018-05-21 11:50:05,35.6,6.0,29.6,32.6,1.6,112
2018-05-21 11:55:05,35.8,6.1,29.6,32.6,1.7,111
2018-05-21 12:00:05,36.2,7.6,28.7,32.6,1.9,111
2018-05-21 12:05:05,37.5,9.3,28.2,32.6,2.2,111
2018-05-21 12:10:05,39.3,9.5,29.8,32.6,2.6,112
2018-05-21 12:15:05,40.2,8.8,31.4,32.6,2.5,111
2018-05-21 12:20:05,40.1,9.7,30.4,32.6,2.4,112
2018-05-21 12:25:05,39.4,8.6,30.8,32.6,2.6,112
2018-05-21 12:30:05,37.2,11.7,25.5,32.6,2.6,111
2018-05-21 12:35:05,36.9,14.9,22.1,32.6,2.4,111
2018-05-21 12:40:05,37.8,13.4,24.3,32.6,2.6,112
2018-05-21 12:45:05,37.6,14.7,22.9,32.6,2.6,111
2018-05-21 12:50:05,37.6,14.5,23.1,32.6,2.7,111
2018-05-21 12:55:05,39.9,14.6,25.2,32.6,2.5,112
2018-05-21 13:00:05,41.0,10.7,30.3,32.6,2.4,111
2018-05-21 13:05:05,41.0,9.4,31.6,32.6,2.4,112
2018-05-21 13:10:05,40.2,11.1,29.0,32.6,2.4,111
2018-05-21 13:15:05,40.6,11.7,28.9,32.6,2.4,111
2018-05-21 13:20:05,40.9,11.0,29.9,32.6,2.4,112
2018-05-21 13:25:05,39.7,8.0,31.8,32.6,2.4,111
2018-05-21 13:30:05,37.6,8.1,29.5,32.6,2.6,111
2018-05-21 13:35:05,36.2,9.5,26.7,32.6,2.4,112
2018-05-21 13:40:05,36.2,11.9,24.3,32.6,2.4,111
2018-05-21 13:45:05,36.4,13.5,23.0,32.6,2.4,112
2018-05-21 13:50:05,36.7,13.9,22.8,32.6,2.4,111
2018-05-21 13:55:05,36.7,14.6,22.1,32.6,2.4,112
2018-05-21 14:00:05,36.8,14.1,22.7,32.6,2.4,111
2018-05-21 14:05:05,36.3,13.8,22.5,32.6,2.4,111
2018-05-21 14:10:05,36.0,13.8,22.2,32.6,2.3,112
2018-05-21 14:15:05,36.0,13.8,22.3,32.6,2.3,111
2018-05-21 14:20:05,35.3,12.8,22.5,32.5,2.7,111
2018-05-21 14:25:05,34.4,13.4,20.9,32.5,3.6,111
2018-05-21 14:30:05,34.0,13.0,20.9,32.5,1.8,111
2018-05-21 14:35:05,33.8,12.1,21.7,32.5,1.5,112
2018-05-21 14:40:05,33.3,11.4,21.9,32.5,1.3,111
2018-05-21 14:45:05,33.0,9.5,23.5,32.5,1.2,111
2018-05-21 14:50:05,32.8,14.2,18.5,32.6,1.2,111
2018-05-21 14:55:05,32.0,19.2,12.8,32.6,1.4,112
2018-05-21 15:00:05,32.0,13.3,18.7,32.5,8.6,111
2018-05-21 15:05:05,29.0,9.9,19.2,32.5,24.4,112
2018-05-21 15:10:05,25.8,8.7,17.1,32.4,10.8,111
2018-05-21 15:15:05,23.9,9.7,14.2,32.4,2.9,111
2018-05-21 15:20:05,23.1,10.5,12.6,32.4,2.4,112
2018-05-21 15:25:05,23.3,11.7,11.6,32.4,2.3,111
2018-05-21 15:30:05,23.6,12.2,11.4,32.4,4.6,112
2018-05-21 15:35:05,23.9,12.6,11.3,32.5,2.5,111
2018-05-21 15:40:05,24.6,12.4,12.2,32.5,2.3,112
2018-05-21 15:45:05,25.7,12.6,13.1,32.6,2.3,110
2018-05-21 15:50:05,27.1,12.6,14.4,32.6,2.4,112
2018-05-21 15:55:05,28.6,17.7,10.9,32.6,2.4,111
2018-05-21 16:00:05,32.0,18.6,13.5,32.6,1.4,112
2018-05-21 16:05:05,33.3,12.6,20.7,32.5,1.7,111
2018-05-21 16:10:05,34.1,10.3,23.9,32.5,1.4,112
2018-05-21 16:15:05,33.4,10.1,23.2,32.5,1.2,112
2018-05-21 16:20:05,32.8,10.6,22.2,32.5,1.3,111
2018-05-21 16:25:05,32.3,11.8,20.5,32.5,1.7,111
2018-05-21 16:30:05,29.7,16.1,13.6,32.3,31.8,112
2018-05-21 16:35:05,26.8,14.8,12.0,32.2,37.1,111
2018-05-21 16:40:05,24.4,12.4,12.0,32.2,12.7,111
2018-05-21 16:45:05,22.8,12.7,10.1,32.3,2.3,112
2018-05-21 16:50:05,22.8,9.4,13.3,32.5,2.1,111
2018-05-21 16:55:05,23.1,9.1,14.0,32.5,2.2,112
2018-05-21 17:00:05,23.3,8.3,15.1,32.5,2.3,111
2018-05-21 17:05:05,23.6,6.4,17.1,32.5,2.3,112
2018-05-21 17:10:05,23.9,7.2,16.7,32.5,2.3,111
2018-05-21 17:15:05,24.2,10.1,14.1,32.5,2.5,112
2018-05-21 17:20:05,24.7,10.9,13.7,32.5,2.3,112
2018-05-21 17:25:05,24.7,10.6,14.1,32.5,2.3,111
2018-05-21 17:30:05,24.5,10.0,14.5,32.5,2.3,112
2018-05-21 17:35:05,24.3,9.9,14.4,32.4,2.5,111
2018-05-21 17:40:05,24.1,9.8,14.3,32.4,2.5,112
2018-05-21 17:45:05,23.9,10.1,13.8,32.5,2.3,111
2018-05-21 17:50:05,23.9,10.0,13.9,32.5,2.3,112
2018-05-21 17:55:05,24.0,9.8,14.2,32.5,2.3,112
2018-05-21 18:00:05,23.9,9.4,14.6,32.5,2.3,111
2018-05-21 18:05:05,23.9,8.6,15.3,32.5,2.3,112
2018-05-21 18:10:05,23.8,8.3,15.5,32.5,2.3,111
2018-05-21 18:15:05,23.7,7.9,15.8,32.4,2.2,112
2018-05-21 18:20:05,23.5,7.7,15.9,32.4,2.2,111
2018-05-21 18:25:05,23.0,6.1,16.9,32.4,2.3,112
2018-05-21 18:30:05,23.9,3.8,20.1,32.4,2.3,112
2018-05-21 18:35:05,26.9,3.6,23.3,32.5,2.4,111
2018-05-21 18:40:05,28.9,5.2,23.7,32.6,2.3,112
2018-05-21 18:45:05,30.6,4.2,26.3,32.6,2.3,111
2018-05-21 18:50:05,31.3,2.5,28.8,32.6,2.3,111
2018-05-21 18:55:05,31.4,2.2,29.2,32.6,2.3,111
2018-05-21 19:00:05,31.0,0.1,30.9,32.4,2.3,112
2018-05-21 19:05:05,30.1,0.8,29.3,32.4,2.3,111
2018-05-21 19:10:05,29.2,2.9,26.3,32.5,2.3,111
2018-05-21 19:15:05,30.1,2.9,27.1,32.5,2.3,112
2018-05-21 19:20:05,30.0,2.5,27.4,32.4,2.3,111
2018-05-21 19:25:05,29.7,2.9,26.8,32.4,2.3,111
2018-05-21 19:30:05,29.4,2.9,26.4,32.4,2.3,112
2018-05-21 19:35:05,29.2,3.0,26.1,32.4,2.3,111
2018-05-21 19:40:05,29.0,3.3,25.8,32.3,2.3,111
2018-05-21 19:45:05,28.9,3.8,25.1,32.3,2.3,112
2018-05-21 19:50:05,28.8,4.9,23.9,32.3,2.3,111
2018-05-21 19:55:05,28.7,6.0,22.7,32.2,2.3,112
2018-05-21 20:00:05,28.5,5.8,22.7,32.2,2.3,111
2018-05-21 20:05:05,28.4,5.2,23.2,32.1,2.3,112
2018-05-21 20:10:05,28.2,4.0,24.2,32.1,2.3,112
2018-05-21 20:15:05,28.0,1.9,26.2,32.0,2.3,111
2018-05-21 20:20:05,27.8,0.3,27.5,31.9,2.3,112
2018-05-21 20:25:05,27.6,-0.3,27.9,31.9,2.3,111
2018-05-21 20:30:05,27.4,-0.3,27.7,31.8,2.4,112
2018-05-21 20:35:05,27.2,0.6,26.5,31.6,2.6,112
2018-05-21 20:40:05,26.9,6.3,20.7,31.4,2.5,112
2018-05-21 20:45:05,24.4,8.2,16.2,30.9,2.3,111
2018-05-21 20:50:05,22.9,9.3,13.6,30.0,2.3,112
2018-05-21 20:55:05,22.4,8.5,13.9,29.1,2.3,111
2018-05-21 21:00:05,22.1,6.4,15.6,28.5,2.3,112
2018-05-21 21:05:05,22.0,3.7,18.3,27.5,2.3,111
2018-05-21 21:10:05,23.6,1.9,21.8,26.1,2.3,111
2018-05-21 21:15:05,25.8,2.2,23.6,23.3,2.3,111
2018-05-21 21:20:05,26.5,3.9,22.5,19.0,2.3,112
2018-05-21 21:25:05,26.8,4.7,22.1,14.2,2.3,112
2018-05-21 21:30:05,27.0,2.7,24.2,9.5,2.3,111
2018-05-21 21:35:05,27.0,1.6,25.4,6.0,2.3,110
2018-05-21 21:40:05,26.9,0.8,26.1,3.6,2.3,111
2018-05-21 21:45:05,26.8,0.6,26.2,2.1,2.3,111
2018-05-21 21:50:05,26.7,1.0,25.7,1.2,2.3,112
2018-05-21 21:55:05,26.6,-0.6,27.1,0.8,2.2,112
2018-05-21 22:00:05,26.4,-1.0,27.4,0.5,2.2,112
2018-05-21 22:05:05,26.1,-1.9,28.1,0.3,2.3,111
2018-05-21 22:10:05,26.2,-1.7,27.8,0.2,2.3,112
2018-05-21 22:15:05,26.1,-1.3,27.4,0.1,2.3,111
2018-05-21 22:20:05,26.1,-2.2,28.3,0.1,2.3,112
2018-05-21 22:25:05,26.1,-1.6,27.6,0.1,2.3,112
2018-05-21 22:30:05,26.0,1.1,25.0,0.1,2.3,111
2018-05-21 22:35:05,26.1,3.0,23.1,0.1,2.3,111
2018-05-21 22:40:05,26.3,4.0,22.3,0.1,2.3,112
2018-05-21 22:45:05,26.4,4.0,22.4,0.0,2.3,112
2018-05-21 22:50:05,26.4,2.9,23.5,0.0,2.3,111
2018-05-21 22:55:05,26.3,0.2,26.1,0.0,2.3,112
2018-05-21 23:00:05,26.2,-0.7,26.9,0.0,2.3,112
2018-05-21 23:05:05,26.1,-0.6,26.6,0.0,2.3,112
2018-05-21 23:10:05,25.9,-0.6,26.5,0.0,2.3,112
2018-05-21 23:15:05,25.8,-0.3,26.1,0.0,2.3,112
2018-05-21 23:20:05,25.8,-0.4,26.2,0.0,2.3,112
2018-05-21 23:25:05,25.7,-0.3,26.1,0.0,2.3,113
2018-05-21 23:30:05,25.7,-0.4,26.0,0.0,2.3,111
2018-05-21 23:35:05,25.7,0.8,24.8,0.0,2.3,112
2018-05-21 23:40:05,25.7,2.4,23.3,0.0,2.3,111
2018-05-21 23:45:05,25.8,3.7,22.1,0.0,2.3,112
2018-05-21 23:50:05,25.3,5.7,19.6,0.0,2.3,111
2018-05-21 23:55:05,22.6,7.6,15.0,0.0,2.3,112
